Location: Hamburg
(53.5554°N, 9.9941°E)
Time: 04:23:30
(UTC+02:00)

ISS - Pass Details

Date: 18 May 2021
Orbit: 417 x 422 km, 51.6° (Epoch: 15 June)

Event Time Altitude Azimuth Distance (km) Brightness Sun altitude
Rises 22:52:23 0° 248° (WSW) 2,362 0.2 -10.4°
Reaches altitude 10° 22:54:30 10° 243° (WSW) 1,501 -0.9 -10.6°
Maximum altitude 22:57:47 51° 166° (SSE) 538 -3.6 -10.8°
Drops below altitude 10° 23:01:04 10° 90° (E) 1,507 -1.3 -11.1°
Sets 23:03:13 0° 85° (E) 2,374 -0.2 -11.3°
Enters shadow 23:03:19 - 85° (E) 2,416 -0.2 -11.3°
